CAPE
0 0 0 0 0 0 0 0 0 0 0 0 28 46 139 33 0 0 0 117 8 758 990 938 983 920 363 265 35 23 0 6 123 43 1 1 1 1 4 3 2 0 0
0 0 0 0 0 0 0 0 0 0 0 0 2 0 47 119 172 13 0 0 0 16 596 770 721 916 369 423 117 120 117 160 99 53 3 2 0 1 1 1 0 0 0
0 0 0 0 0 0 0 0 0 0 0 0 0 6 0 60 224 22 0 0 1 215 262 239 811 691 545 533 321 183 301 386 188 35 0 1 2 1 2 2 1 0 0
0 0 0 0 0 0 0 0 0 0 0 0 0 4 2 0 72 37 55 95 186 27 105 22 260 197 410 498 568 294 408 391 275 126 8 3 0 2 0 0 1 3 1
0 0 0 0 0 0 0 0 0 0 0 0 1 13 0 6 8 10 0 36 60 22 6 17 21 11 3 281 323 229 234 233 276 128 65 30 0 0 0 0 0 1 1
0 0 0 0 0 0 0 0 0 0 0 0 0 0 9 5 25 16 1 12 5 0 2 131 1 0 0 38 114 111 127 120 128 89 64 53 0 0 0 0 0 0 0
0 0 0 0 0 0 0 0 0 0 0 0 0 0 0 0 0 0 1 18 10 3 0 24 45 21 0 0 26 52 26 65 30 23 17 10 0 0 0 0 0 0 0
0 0 0 0 0 0 0 0 0 0 0 0 0 0 1 0 0 0 0 0 7 13 0 16 53 12 1 0 0 19 0 0 5 1 0 0 0 0 0 0 0 0 0
0 0 0 0 0 0 0 0 0 0 0 0 0 0 0 0 2 0 0 0 0 3 14 10 44 78 0 1 13 1 0 0 0 0 0 0 29 4 0 0 0 0 0
0 0 0 0 0 0 0 0 0 0 0 0 0 0 0 0 0 0 0 0 0 0 0 10 4 49 50 0 6 2 4 0 0 0 0 0 3 0 0 0 0 0 0
1 0 0 0 0 0 0 0 0 0 0 0 0 0 0 0 0 0 0 0 0 0 0 2 38 15 9 0 0 34 25 0 0 0 0 0 0 2 0 0 0 0 0
0 0 1 0 0 2 0 0 1 1 0 0 0 0 0 0 2 0 0 0 0 0 0 0 3 17 0 0 0 0 11 6 1 0 0 0 0 1 0 0 0 0 0
0 1 1 2 3 2 3 1 2 0 0 0 0 0 0 0 0 0 0 0 0 0 0 7 0 0 0 0 0 0 0 0 1 1 0 0 0 0 0 7 0 0 0
2 0 2 1 1 2 3 4 2 2 4 5 4 4 4 2 2 2 0 0 0 0 0 1 1 0 0 0 0 0 0 3 2 10 1 0 0 0 0 0 0 0 0
1 2 2 3 3 2 2 2 2 1 2 3 3 1 3 2 0 0 0 0 0 0 0 2 17 22 0 0 0 0 0 0 32 23 32 3 0 0 2 0 0 0 0
2 1 1 2 2 2 2 2 4 2 2 1 0 0 0 0 0 0 0 0 0 0 0 0 42 28 10 0 5 66 50 45 27 81 72 49 11 16 21 0 0 0 0
2 2 2 2 2 2 2 2 2 1 2 0 0 0 0 0 0 0 0 0 0 0 0 0 0 4 12 18 0 115 130 187 132 72 148 98 103 79 30 6 1 0 0
1 1 1 2 2 2 2 2 2 2 2 1 0 0 0 0 0 0 0 0 0 0 0 0 0 0 0 0 0 0 39 91 106 231 123 125 121 78 76 46 2 0 0
2 2 1 1 2 1 1 1 1 1 1 1 2 1 0 0 0 0 0 0 0 0 0 0 0 0 0 0 0 6 1 1 3 11 51 44 23 0 41 58 7 0 0
2 2 1 2 2 1 1 2 2 1 2 2 3 2 2 1 1 0 0 0 0 0 0 0 0 0 0 0 0 0 2 9 3 0 3 32 18 0 0 30 7 0 0
2 2 1 1 1 1 1 2 2 2 2 1 1 1 0 1 1 1 2 8 0 0 0 0 0 0 0 0 0 0 0 0 0 0 0 0 3 5 0 16 4 2 1
1 1 1 1 1 1 1 1 1 2 2 2 2 1 0 0 1 1 1 0 0 5 10 2 0 0 0 0 0 2 0 3 7 3 17 18 5 9 0 0 1 5 1
1 0 1 1 1 0 1 1 2 2 2 2 3 3 3 1 3 2 1 3 2 0 0 7 12 5 0 0 0 0 2 0 27 4 4 11 8 1 7 6 0 0 3
0 1 2 2 2 2 2 2 1 1 2 2 2 2 2 2 2 2 2 1 1 2 1 0 0 6 9 2 0 0 0 0 0 0 0 14 23 4 17 6 0 0 0
1 1 1 1 1 2 2 2 1 1 3 2 2 1 2 1 1 2 0 3 1 4 4 3 2 0 6 12 1 0 0 0 0 0 0 4 24 21 13 3 3 4 1
1 1 1 1 1 1 1 0 1 1 2 1 1 1 1 1 1 1 1 1 1 1 2 0 3 6 0 1 5 1 0 0 0 0 0 0 0 0 0 12 5 0 3
CIN
0 0 0 0 0 0 0 0 0 0 0 0 -28 -77 -44 -133 0 0 0 -116 -110 -78 -50 -9 -16 -41 -34 -59 -104 -114 0 -107 -93 -235 0 0 0 0 0 0 0 0 0
0 0 0 0 0 0 0 0 0 0 0 0 -1 0 -104 -48 -105 -288 0 -2 -3 -96 -60 -14 -25 -25 -50 -47 -86 -66 -65 -80 -121 -203 0 0 0 0 0 0 0 0 0
0 0 0 0 0 0 0 0 0 0 0 0 0 -3 0 -75 -14 -72 0 0 -162 -29 -96 -23 -15 -6 -35 -45 -75 -73 -47 -56 -101 -184 0 0 0 0 0 0 0 0 0
0 0 0 0 0 0 0 0 0 0 0 0 0 -2 -1 0 -25 -52 -19 -1 -25 -66 -26 -117 -74 -40 -53 -61 -56 -69 -61 -55 -81 -120 -164 -134 0 0 0 0 0 0 0
0 0 0 0 0 0 0 0 0 0 0 0 -3 -6 -1 -2 -1 -8 -1 -8 -34 -49 -49 -86 -76 -15 -30 -46 -62 -86 -82 -85 -69 -82 -137 -176 -75 0 0 0 0 0 0
0 0 0 0 0 0 0 0 0 0 0 0 0 0 -18 -13 -7 -7 -6 -8 -8 -4 -74 -15 -51 0 -3 -55 -49 -80 -55 -77 -90 -123 -81 -83 0 0 0 0 0 0 0
0 0 0 0 0 0 0 0 0 0 0 0 0 0 0 0 0 0 -24 -8 -7 -13 0 -64 -49 -71 0 0 -78 -55 -69 -68 -94 -99 -62 -80 -16 0 0 0 0 0 0
0 0 0 0 0 0 0 0 0 0 0 0 0 0 -8 0 0 0 0 0 -10 -5 0 -10 -12 -65 -1 0 -14 -44 0 0 -57 -7 0 0 -56 0 0 0 0 0 0
0 0 0 0 0 0 0 0 0 0 0 0 0 0 0 0 -7 0 0 0 0 -1 -4 -3 -7 -8 0 -4 -158 -13 0 0 -30 0 0 0 -75 -123 0 0 0 0 0
0 0 0 0 0 0 0 0 0 0 0 0 0 0 0 0 0 0 0 0 0 0 0 -5 -6 -6 -17 0 -132 -30 0 0 0 0 0 0 -85 -10 0 0 0 0 0
-17 0 -3 0 0 -1 0 -1 0 0 0 0 0 0 0 0 0 0 0 0 0 -18 0 -1 -9 -17 -15 0 0 -49 -88 -32 0 0 0 0 0 -96 0 0 0 0 0
0 -2 -1 0 -3 -1 -1 -1 -3 -5 0 0 0 0 0 0 -1 0 0 0 0 0 0 0 -3 -15 0 0 0 0 -88 -159 -19 -5 0 0 0 -24 0 -21 -18 0 0
-4 -3 -3 -1 -1 -1 0 0 -1 0 0 0 0 -1 0 0 0 0 0 0 0 0 0 -68 0 0 0 0 0 0 0 0 0 -19 0 0 0 0 0 -63 -3 0 0
-5 -3 -1 0 0 -1 -1 0 0 0 0 0 0 0 0 -1 -2 -9 0 0 0 0 0 -35 -48 0 0 0 0 0 0 -23 0 -16 -1 -4 0 0 0 0 0 0 0
0 0 0 0 0 0 0 0 0 0 0 0 0 0 0 0 0 0 0 0 0 0 0 -15 -34 -32 0 0 0 0 -5 0 -51 -14 -2 -8 0 -24 -13 0 0 0 0
0 0 0 0 0 0 0 0 0 0 -1 -2 0 -1 0 0 0 0 0 0 0 0 0 0 0 -1 -18 0 -28 -56 -117 -105 -99 -12 -2 -1 -9 -38 -23 -33 0 0 0
0 0 0 0 0 0 0 0 0 0 -1 0 0 0 0 0 0 0 0 0 0 0 0 0 0 -4 -7 -8 -3 -4 -40 -11 -29 -31 0 -5 -22 -59 -18 -40 0 0 0
0 0 0 0 0 0 0 0 0 0 0 0 0 0 0 0 0 0 0 0 0 0 0 0 0 0 0 0 0 0 -59 -29 -17 -1 -2 -2 -9 -8 -7 -4 0 0 0
0 0 0 0 0 0 0 0 0 0 0 0 0 0 0 0 0 0 0 0 0 0 0 0 0 0 0 0 0 -60 -39 -37 -42 -56 -13 -83 -8 -2 -7 -2 -36 0 0
0 0 0 0 0 0 0 0 0 0 0 0 0 0 0 0 0 0 0 0 0 0 0 0 0 0 0 0 0 0 -60 -47 -60 -4 -26 -11 -6 0 0 -2 -15 0 0
0 0 0 0 0 0 0 0 0 0 0 0 0 0 -1 0 0 0 0 0 0 0 0 0 0 0 0 0 0 0 0 0 0 0 -24 0 -31 -26 0 -1 -7 -2 0
0 0 0 0 0 0 0 0 0 0 0 0 0 0 0 0 0 0 0 0 0 -2 -1 -1 0 0 0 0 0 -31 0 -17 -33 -9 -1 0 -19 -24 0 0 0 -8 0
0 0 0 0 0 0 0 0 0 0 0 0 0 0 0 0 0 0 0 0 -3 -1 0 -2 -5 -4 0 0 0 0 -30 0 -20 -13 -1 -4 -22 -2 -25 -30 0 -25 -20
0 0 0 0 0 0 0 0 0 0 0 0 0 0 0 0 0 0 0 0 0 0 -3 0 -1 -10 -9 -7 0 0 0 0 0 0 0 -6 -37 -49 -24 -14 0 0 -12
0 0 0 0 0 0 0 0 0 0 0 0 0 0 0 0 0 0 -1 0 0 0 0 -2 -1 0 -7 -6 -5 0 0 0 0 0 0 -17 -50 -45 -42 -31 -9 -16 -52
0 0 0 0 0 0 0 0 0 0 0 0 0 0 0 0 0 0 0 0 0 0 0 0 -1 -3 0 -13 -10 -10 0 0 0 0 0 0 0 0 -5 -29 -19 0 -25
Wind_Speed
23 25 28 29 31 32 34 35 36 35 34 35 33 31 29 21 19 18 19 18 18 36 35 35 20 20 16 13 7 8 8 7 6 10 10 9 12 12 13 14 15 15 15
27 28 30 31 33 35 36 38 38 37 34 33 34 34 32 30 21 22 21 22 29 33 39 36 32 34 23 18 11 9 7 4 5 6 7 9 11 11 11 13 14 15 15
31 33 34 35 36 39 40 39 39 38 36 35 34 32 33 32 26 21 23 26 18 14 19 37 30 32 37 27 20 12 10 6 4 5 8 10 11 9 11 13 13 14 15
35 34 36 38 38 39 39 39 39 39 38 36 35 32 30 30 28 27 24 20 23 22 21 23 17 29 30 31 24 14 8 4 4 4 7 6 9 8 10 11 14 14 14
33 36 39 40 40 40 40 39 39 39 39 36 34 32 31 29 28 29 27 25 24 28 27 25 19 20 42 26 23 20 14 8 6 4 7 6 5 5 6 10 13 13 14
37 38 39 40 41 42 41 41 42 42 40 35 34 33 32 32 29 28 29 29 27 26 30 32 25 25 26 24 19 22 17 15 9 3 7 9 6 5 5 8 11 15 18
39 40 40 40 40 41 40 41 41 41 40 40 38 34 34 32 32 33 31 30 29 31 32 31 23 22 20 23 25 24 21 17 9 10 7 8 7 3 1 6 7 14 17
40 39 40 42 43 43 43 44 44 44 43 42 41 39 36 34 32 35 37 34 34 31 32 31 25 21 23 23 24 26 41 26 33 33 11 10 4 3 2 5 5 13 16
40 41 42 42 44 44 45 46 47 47 47 46 44 42 39 37 35 34 35 38 35 35 32 30 27 24 21 25 26 25 28 27 27 25 17 13 8 7 6 1 6 8 16
40 41 41 43 44 45 45 45 45 46 48 47 48 46 44 42 38 37 37 37 41 38 35 32 30 26 23 22 27 31 28 29 29 24 21 19 13 8 8 4 6 9 15
40 41 42 41 42 42 43 43 45 46 46 48 49 47 45 42 40 39 40 39 39 40 38 33 30 28 27 27 28 30 29 25 26 27 24 19 16 9 7 4 6 9 13
40 41 41 41 42 42 43 43 43 44 47 49 51 51 46 43 39 37 31 31 33 36 37 35 31 30 29 30 30 33 35 30 29 30 20 25 20 15 10 9 3 13 8
39 40 41 41 41 41 42 42 42 42 43 45 46 48 47 44 41 39 36 34 34 34 35 35 33 31 28 28 28 30 34 36 36 35 34 29 27 22 17 11 9 9 11
39 41 40 42 42 40 39 39 41 42 42 42 43 44 44 42 39 32 30 31 33 31 34 34 31 30 28 27 26 27 29 34 38 40 37 32 31 30 26 19 14 12 12
40 40 40 39 40 40 38 37 38 38 39 43 42 44 46 46 42 35 38 38 36 34 35 31 28 27 27 27 27 27 28 31 35 38 37 31 29 29 28 23 17 12 16
39 39 39 39 37 37 37 39 32 33 37 40 45 44 44 46 46 46 45 42 37 34 34 31 26 22 22 22 24 25 26 31 34 35 38 37 28 28 27 24 20 18 13
39 40 39 38 35 36 37 39 39 34 34 37 38 42 43 43 43 42 41 38 37 36 32 30 28 19 18 19 18 21 26 28 32 35 37 38 36 29 26 26 23 20 19
37 39 38 36 33 37 38 37 33 35 36 37 35 36 38 40 39 39 38 36 35 28 28 31 29 27 23 21 20 24 25 26 34 34 33 35 36 31 27 26 26 23 20
38 38 38 34 31 35 38 37 33 31 28 35 37 36 36 37 38 38 36 30 28 27 24 26 29 27 27 23 21 22 25 28 34 37 36 29 33 34 34 31 27 27 24
37 39 39 34 28 33 38 37 36 34 33 12 36 36 35 33 32 32 27 24 24 23 21 24 25 24 29 25 22 23 27 32 35 40 38 35 36 33 30 30 33 28 31
33 36 39 35 26 24 30 38 39 39 38 38 38 35 35 35 33 32 30 24 19 18 19 22 23 20 24 25 26 31 34 35 39 36 38 36 32 36 32 19 23 35 31
32 31 31 39 32 22 20 17 26 38 38 39 39 36 35 32 30 29 28 26 25 27 24 20 18 17 18 20 29 36 39 36 35 34 33 33 31 28 32 32 29 27 28
35 36 35 41 40 20 23 27 26 27 34 41 40 38 34 32 28 25 21 23 21 24 30 30 22 12 14 24 38 33 31 34 31 24 34 34 32 32 32 37 36 34 29
36 40 41 42 42 40 26 18 23 20 14 12 15 35 34 34 33 31 28 28 29 8 29 26 28 14 20 32 40 38 36 30 28 29 29 34 30 32 30 31 36 31 31
40 41 41 40 37 39 15 16 16 14 15 12 10 9 19 31 32 31 31 30 25 23 29 13 17 17 37 32 37 43 39 37 32 24 24 32 34 30 29 29 32 30 35
39 37 34 32 34 25 17 16 14 12 11 11 12 14 12 24 31 31 31 30 27 22 26 29 28 34 36 40 36 36 37 37 37 31 23 19 21 19 24 30 29 28 27
Wind_Direction
328 324 322 320 318 317 316 315 315 318 321 322 325 332 332 315 297 286 280 272 278 270 275 272 265 278 282 293 294 303 307 319 328 341 360 25 6 11 17 20 23 22 25
323 320 320 318 316 315 314 313 313 314 317 320 321 321 327 331 311 293 284 281 285 276 268 265 275 268 273 281 281 286 294 315 330 341 4 6 6 9 15 18 17 17 19
316 316 316 315 315 312 311 312 313 312 313 316 317 319 321 323 327 314 290 292 280 246 274 274 274 273 263 268 275 276 284 294 323 334 345 355 359 7 1 5 12 16 13
311 316 317 314 314 315 314 313 310 308 309 311 313 315 320 320 317 320 312 286 272 268 269 284 289 269 278 265 268 257 260 258 289 339 351 354 341 345 352 1 3 11 11
318 318 314 312 312 313 312 311 307 306 305 308 310 313 315 317 314 312 312 312 301 290 275 286 279 262 237 278 252 248 234 246 248 298 327 3 1 341 343 345 350 4 2
317 316 316 314 312 311 313 311 307 305 303 304 304 305 308 310 312 310 308 304 304 301 293 286 262 255 241 214 243 238 226 232 219 320 312 313 308 303 323 330 341 352 350
314 313 313 314 313 312 312 311 309 307 306 304 301 302 301 302 304 304 306 304 300 297 295 293 283 264 245 247 252 256 248 238 232 291 312 315 339 308 138 314 339 342 349
314 315 314 312 309 309 308 306 306 304 303 302 301 301 300 299 300 299 298 301 296 295 294 293 286 272 243 247 243 241 247 266 266 277 261 278 282 162 171 290 325 339 347
316 314 314 313 310 308 307 305 304 302 300 299 298 298 298 299 297 296 298 294 296 294 292 292 288 279 259 242 236 232 242 245 240 259 257 277 259 189 153 278 304 338 335
317 316 316 314 311 307 306 305 304 303 300 298 296 295 294 293 293 295 296 294 288 290 290 286 286 280 269 250 250 255 246 236 242 262 259 272 268 217 189 201 258 307 326
320 319 317 316 313 312 310 308 305 303 301 299 296 295 294 294 293 293 290 288 289 284 284 285 283 280 275 264 252 257 257 265 260 261 255 258 265 228 238 248 272 279 307
321 318 316 315 314 313 310 308 306 303 299 296 292 290 290 290 291 294 298 296 291 287 280 279 280 280 279 276 268 261 262 262 263 255 255 257 256 254 251 269 246 282 298
321 320 318 317 317 316 312 310 308 307 304 299 295 289 287 289 289 288 289 293 295 289 285 277 275 276 280 274 272 269 261 259 257 258 258 257 259 265 258 265 281 284 296
324 322 322 320 318 317 315 312 308 307 304 301 298 294 291 290 290 290 293 293 292 295 291 281 277 276 277 277 274 272 267 260 257 257 257 259 260 256 251 248 252 263 273
327 326 327 327 323 319 317 316 314 312 307 301 298 294 288 284 284 286 285 287 289 290 294 284 278 275 275 277 273 270 267 263 259 257 255 251 252 246 244 240 233 238 251
329 330 333 333 332 326 321 315 323 321 315 307 295 292 291 285 281 280 281 282 284 286 285 284 279 277 270 272 271 268 267 262 258 257 253 247 243 239 235 231 228 232 218
332 329 334 337 341 331 323 317 320 327 324 316 309 297 286 284 282 281 282 281 278 279 278 278 281 281 276 272 274 268 266 263 258 255 252 245 238 236 225 226 226 224 226
337 334 336 341 344 331 320 322 331 328 328 324 318 304 291 280 279 280 282 282 278 275 273 272 274 277 277 275 274 267 265 266 255 251 250 245 235 229 226 226 221 217 217
340 336 336 349 351 339 321 325 334 335 337 325 311 300 289 281 278 280 280 286 282 273 269 269 268 272 269 273 272 268 266 262 252 243 239 242 233 231 234 232 217 211 213
345 338 336 350 360 349 329 326 328 332 332 341 291 300 298 297 294 287 291 290 285 274 268 266 268 266 265 264 269 269 265 257 246 238 242 239 234 225 229 236 215 212 215
353 348 339 348 0 2 356 329 323 321 320 317 304 310 298 287 291 288 287 293 291 284 269 265 266 262 260 262 263 262 256 250 238 240 239 237 234 226 223 230 214 213 215
354 355 355 340 352 359 358 354 351 333 326 318 312 310 302 301 300 296 293 289 288 281 278 270 261 248 251 251 258 250 242 241 242 246 239 234 235 234 229 230 224 224 217
354 350 352 336 335 356 355 353 351 347 339 322 313 307 304 300 301 302 304 296 294 282 269 266 270 238 232 255 244 247 245 241 242 254 244 239 231 228 228 224 226 228 224
355 342 337 338 327 334 358 345 350 347 312 295 331 315 305 294 285 284 287 287 281 276 268 268 265 262 262 250 239 240 238 240 247 251 261 238 234 232 233 232 229 232 224
345 336 328 321 314 315 339 346 349 350 356 348 346 346 342 303 286 279 277 273 284 283 259 266 266 192 239 247 240 233 236 235 236 250 266 235 228 229 229 230 227 226 221
332 324 318 314 314 308 316 315 312 321 332 355 359 359 356 328 287 276 270 267 271 279 265 248 252 217 200 228 234 234 236 238 237 239 250 246 224 229 232 232 229 229 230